Location: Isola Pescaroli
(45.0500°N, 10.1667°E)
Time: 15:32:59
(UTC+00:00)

SeaSat 1 - Pass Details

Date: 03 March 2021
Orbit: 744 x 748 km, 108.0° (Epoch: 10 April)

Event Time Altitude Azimuth Distance (km) Brightness Sun altitude
Rises 19:33:45 0° 19° (NNE) 3,201 5.7 -26.0°
Reaches altitude 10° 19:36:14 10° 9° (N) 2,274 5.0 -26.4°
Maximum altitude 19:40:30 30° 309° (NW) 1,317 4.2 -27.1°
Drops below altitude 10° 19:44:46 10° 249° (WSW) 2,264 5.5 -27.8°
Sets 19:47:14 0° 239° (WSW) 3,184 6.2 -28.2°
